Voltar ao catálogo

FALCON 9 R/B

AtivoHEO
NORAD 54049·ROCKET BODY·🇺🇸 United States

Lançado Oct 15, 2022 de Cape Canaveral Space Force Station

Loading…

Próximas Passagens (próximas 24 horas)

TLE

AtualizadoSource: Space-Track

Época: Sep 10, 2026, 03:56 UTC

1 54049U 22134B   26253.16406632 -.00000215  00000-0  32323-3 0  9995
2 54049  27.6924  12.0385 8006655 297.6836   5.3630  1.35654979 19268

Acompanhe FALCON 9 R/B em tempo real com AllMySat

Download on the App Store